Location: Ethel Rock
(53.4667°N, 4.5667°W)
Time: 01:26:39
(UTC+00:00)

deb Chang Zheng 4 - Pass Details

Date: 24 October 2020
Orbit: 602 x 625 km, 98.6° (Epoch: 26 November)

Event Time Altitude Azimuth Distance (km) Brightness Sun altitude
Rises 05:47:56 0° 12° (NNE) 2,869 7.1 -11.7°
Reaches altitude 10° 05:50:10 10° 7° (N) 1,961 6.2 -11.4°
Maximum altitude 05:54:15 49° 293° (WNW) 786 3.7 -10.8°
Drops below altitude 10° 05:58:20 10° 218° (SW) 1,952 5.8 -10.2°
Sets 06:00:33 0° 213° (SSW) 2,854 6.7 -9.8°
